Location: ?
(35.3408°N, 139.5340°E)
Time: 09:53:49
(UTC+00:00)

Daily predictions for brighter satellites

Satellite Brightness Start Highest point End
(mag) Time Altitude Azimuth Time Altitude Azimuth Time Altitude Azimuth
SPOT 1/Viking Rocket 3.6 12:04:41 56° S 12:05:44 75° WSW 12:10:57 10° NNW
Cosmos 1943 Rocket 2.0 12:08:02 66° SSE 12:08:40 73° ESE 12:14:16 10° NNE
Delta 2 Rocket 3.6 12:03:53 10° W 12:08:48 80° WSW 12:08:48 80° WSW
ERS-1 Rocket 3.2 12:09:31 54° ENE 12:09:31 54° ENE 12:14:21 10° N
Cosmos 2112 Rocket 4.4 12:05:25 10° N 12:10:36 48° ENE 12:10:39 48° ENE
Cosmos 972 Rocket 4.5 12:04:11 10° NNW 12:11:03 74° ENE 12:12:14 59° SE
CZ-2C R/B 3.7 12:07:25 10° WSW 12:07:46 12° WSW 12:07:46 12° WSW
Cosmos 2228 Rocket 3.6 12:11:53 49° WSW 12:12:33 54° W 12:16:56 10° N
Cosmos 1461 3.1 12:13:16 82° NW 12:13:16 82° NW 12:17:53 10° NNE
Spot 2 Rocket 3.3 12:14:24 78° SSW 12:14:44 84° WSW 12:19:48 10° NNW
Resurs 01 Rocket 3.4 12:13:45 21° SW 12:15:10 25° W 12:18:51 10° NW
Cosmos 1937 Rocket 3.3 12:16:34 86° ESE 12:16:35 86° ESE 12:21:46 10° NNE
NOSS 3-4 (A) 4.0 12:15:57 10° NW 12:23:14 74° WSW 12:25:19 52° S
NOSS 3-4 (C) 3.9 12:16:04 10° NW 12:23:21 75° WSW 12:25:25 52° S
Cosmos 1869 Rocket 3.9 12:19:33 10° N 12:23:12 60° NNW 12:23:12 60° NNW
SPOT 5 3.0 12:26:20 78° NE 12:26:20 78° NE 12:31:28 10° N
Cosmos 1340 Rocket 4.1 12:24:16 10° N 12:26:47 36° N 12:26:47 36° N
Cosmos 2369 Rocket 2.9 12:30:10 41° ENE 12:30:10 41° ENE 12:34:06 10° NNE
Cosmos 1707 Rocket 4.4 12:36:15 47° N 12:36:15 47° N 12:39:27 10° N
CARTOSAT-1 4.5 12:36:54 45° WNW 12:36:54 45° WNW 12:40:21 10° NNW
Cosmos 1680 Rocket 3.6 12:30:53 10° NNW 12:35:54 77° WNW 12:35:54 77° WNW
ATLAS 2AS CENTAUR R/B 2.5 12:29:21 10° NNW 12:36:35 80° ENE 12:37:20 71° ESE
Cosmos 1238 Rocket 4.3 12:40:57 10° N 12:45:04 42° NE 12:45:04 42° NE
Cosmos 962 Rocket 4.5 12:55:32 10° N 13:01:26 76° WNW 13:01:26 76° WNW
CZ-3C R/B 4.3 12:29:47 10° W 13:11:20 31° SW 13:12:24 31° SSW
Cosmos 1818 4.3 13:11:33 10° NNW 13:15:36 50° NW 13:15:36 50° NW
Meteor 2-4 Rocket 4.5 13:20:44 47° NNE 13:20:44 47° NNE 13:24:42 10° NNE
Gbstr 26 Del rocket 4.2 13:19:11 10° NW 13:25:50 65° N 13:25:50 65° N
Cosmos 1607 4.3 13:26:30 60° WNW 13:26:44 60° WNW 13:33:10 10° NNE
Terra 3.8 13:36:45 22° WNW 13:36:45 22° WNW 13:39:12 10° NW
Cosmos 2366 rocket 4.3 13:30:21 10° N 13:35:34 62° NW 13:35:34 62° NW
Cosmos 2369 Rocket 4.2 14:11:53 18° WNW 14:12:58 19° WNW 14:16:57 10° N
Lacrosse 5 3.7 14:38:35 28° N 14:38:35 28° N 14:41:32 10° NNE
COSMOS 2455 4.3 14:40:51 10° N 14:46:01 29° NE 14:46:16 29° ENE
Cosmos 2227 Rocket 4.1 15:03:46 10° N 15:08:05 22° ENE 15:08:53 21° ENE
Cosmos 2297 Rocket 3.7 15:05:33 10° N 15:10:20 30° ENE 15:10:20 30° ENE
ADEOS II 4.4 15:35:21 10° ENE 15:37:49 14° E 15:37:49 14° E
USA 281 4.1 15:48:19 34° ESE 15:50:24 44° ENE 15:56:34 10° N
USA 215 3.9 15:49:30 10° ESE 15:55:47 51° NE 16:02:04 10° NW
Resurs 1-4 Rocket 3.0 15:52:03 10° NNE 15:56:00 44° ENE 15:56:00 44° ENE
Cosmos 2219 3.7 15:53:26 10° NNW 15:58:12 57° NNE 15:58:12 57° NNE
CZ-2D R/B 2.9 15:53:55 10° NNE 15:58:03 46° ENE 15:58:03 46° ENE
NPP 4.4 15:59:13 10° NNE 16:03:37 45° ENE 16:03:37 45° ENE
SL-16 R/B 3.2 16:03:19 44° ESE 16:04:30 50° ENE 16:10:30 10° N
Lacrosse 4 Rocket 3.1 16:12:46 33° NNE 16:12:46 33° NNE 16:15:16 10° NNE
Meteor 2-11 Rocket 4.5 16:06:53 10° N 16:12:47 77° NE 16:12:47 77° NE
SeaSat 1 4.3 16:10:01 10° N 16:13:06 21° NW 16:13:06 21° NW
Cosmos 1459 Rocket 4.1 16:10:25 10° N 16:15:49 66° NW 16:15:49 66° NW
Cosmos 1725 Rocket 4.2 16:11:43 10° N 16:17:54 62° E 16:18:26 60° ESE
Cosmos 1697 Rocket 3.1 16:21:03 55° NNW 16:21:03 55° NNW 16:25:48 10° NNE
ISS -0.5 16:26:58 10° N 16:28:54 14° NNE 16:30:49 10° ENE
Cosmos 2360 4.5 16:30:06 60° NW 16:30:06 60° NW 16:35:18 10° NNE
Cosmos 2016 Rocket 3.8 16:24:01 10° N 16:30:14 88° W 16:30:14 88° W
UNK 4.4 16:32:59 50° N 16:32:59 50° N 16:36:27 10° N
COSMOS 2455 4.2 16:26:25 10° NW 16:29:22 27° WNW 16:29:22 27° WNW
Cosmos 1980 Rocket 2.2 16:34:12 81° NE 16:34:12 81° NE 16:39:38 10° NNE
Cosmos 2173 Rocket 4.4 16:29:53 10° NNW 16:35:05 47° WNW 16:35:05 47° WNW
Meteor 1-16 Rocket 4.2 16:29:58 10° N 16:35:29 75° NW 16:35:29 75° NW
IRS-1D 4.3 16:31:37 10° NNE 16:36:43 44° E 16:37:10 43° ESE
Timation 1 Rocket 4.2 16:33:47 10° NNW 16:39:47 89° ENE 16:40:05 82° SSE
Meteor 2-5 Rocket 4.0 16:43:34 56° SE 16:44:17 60° E 16:49:49 10° NNE
Cosmos 2061 Rocket 4.0 16:44:48 10° NNW 16:51:05 64° W 16:51:23 63° WSW
Cosmos 2285 Rocket 3.9 16:50:41 69° SW 16:51:28 80° WNW 16:57:56 10° NNE
Cosmos 2227 Rocket 3.0 16:46:57 10° NW 16:50:39 36° WNW 16:50:39 36° WNW
Atlas Centaur 2 3.4 16:52:42 40° SSE 16:52:48 40° SSE 16:59:32 10° E
Cosmos 2297 Rocket 3.7 16:49:28 10° NW 16:52:06 24° WNW 16:52:06 24° WNW
Cosmos 1190 Rocket 4.1 16:49:17 10° NNW 16:54:31 71° ENE 16:55:29 56° SE
IDEFIX/ARIANE 42P 3.6 16:50:01 10° NNE 16:54:57 40° E 16:56:24 33° SE
Cosmos 1420 Rocket 3.8 16:56:34 85° SSE 16:56:40 86° ESE 17:01:52 10° NNE
ARIANE 5 R/B 4.4 16:54:41 10° NE 16:58:45 24° E 17:01:15 17° SE
Cosmos 1536 Rocket 4.0 17:00:32 53° NNW 17:00:32 53° NNW 17:04:08 10° N
Cosmos 2369 4.4 17:00:26 38° WNW 17:00:43 38° WNW 17:06:03 10° N
Cosmos 2278 3.7 17:00:35 62° W 17:00:59 64° WNW 17:06:40 10° NNE
Cosmos 2082 3.6 17:04:11 10° NNW 17:09:51 69° WSW 17:10:31 63° SSW
SL-16 R/B 2.9 17:10:48 34° SSE 17:12:44 46° ESE 17:18:08 10° NE
OAO 2 Rocket 3.3 17:12:06 67° W 17:12:50 88° S 17:18:10 10° E
Cosmos 407 Rocket 3.7 17:09:05 10° NNW 17:13:56 52° W 17:13:56 52° W
ADEOS II 2.1 17:12:58 10° N 17:18:07 58° WNW 17:18:45 54° WSW
NOSS 3-2 (A) 3.4 17:16:49 45° S 17:18:15 61° ESE 17:24:10 10° NE
Cosmos 676 Rocket 4.2 17:13:45 10° NNW 17:19:01 70° ENE 17:22:43 20° SSE
Cosmos 220 Rocket 3.9 17:20:09 75° W 17:20:12 75° WNW 17:24:38 10° NNE
ADEOS Rocket 3.5 17:14:36 17° SSE 17:20:41 85° ENE 17:28:31 10° NNW
GP-B 3.2 17:16:45 10° N 17:20:56 59° WNW 17:20:56 59° WNW
Cosmos 1626 4.5 17:24:43 14° NW 17:24:43 14° NW 17:25:38 10° NNW
OAO 3 Copernicus 4.3 17:25:18 57° S 17:25:46 60° SSE 17:30:46 10° E
CBERS-1 3.9 17:22:45 10° N 17:27:51 72° WNW 17:29:01 52° SW
IRS-P3 4.3 17:25:23 10° NNE 17:30:42 68° ESE 17:33:11 32° S
USA 238 DEB 3.8 17:30:29 32° S 17:33:33 62° ESE 17:40:10 10° NE
USA 238 3.9 17:30:34 31° S 17:33:40 62° ESE 17:40:16 10° NE
USA 281 4.0 17:35:09 30° W 17:35:09 30° W 17:40:35 10° NW
Resurs 1-4 Rocket 3.8 17:33:16 10° NNW 17:36:32 17° WNW 17:37:05 17° WNW
Cosmos 2322 Rocket 2.6 17:35:24 29° S 17:38:15 60° ESE 17:43:51 10° NNE
CZ-2D R/B 3.8 17:35:22 10° NNW 17:38:41 17° WNW 17:39:23 17° WNW
USA 215 3.6 17:35:06 22° S 17:38:48 40° SW 17:44:53 10° WNW
Cosmos 1452 Rocket 3.5 17:41:22 42° SW 17:43:04 67° WNW 17:48:20 10° NNE
Cosmos 2263 Rocket 2.4 17:37:35 10° NNW 17:43:16 73° ENE 17:48:55 10° SSE
Cosmos 1954 Rocket 3.9 17:38:38 10° NNW 17:43:53 65° WSW 17:46:58 25° S
CENTAUR R/B 2.5 17:44:15 30° SSW 17:47:05 69° ESE 17:53:34 10° NE
SL-16 R/B 3.7 17:48:24 23° W 17:48:24 23° W 17:53:03 10° NW
COSMOS 2441 4.4 17:45:12 10° NNE 17:50:08 83° ESE 17:52:50 27° S
SEDSat Delta rocket 4.0 17:51:03 33° SSW 17:52:49 43° SSE 17:57:39 10° E
Aureole 2 Rocket 4.0 17:51:34 10° NNW 17:52:21 17° NW 17:52:21 17° NW
CZ-4C R/B 3.6 17:54:16 37° SSW 17:55:36 54° W 17:59:40 10° NNW
OAO 1 Rocket 4.4 17:52:57 30° W 17:55:38 84° S 18:01:00 10° E
MSX 3.8 17:50:52 10° N 17:56:38 75° WNW 18:00:11 25° SSW
Cosmos 1300 4.2 17:53:39 10° NW 17:55:55 22° WNW 17:55:55 22° WNW
Meteor 1-24 Rocket 4.4 17:56:16 29° WSW 17:57:53 34° WNW 18:02:48 10° N
Cosmos 1513 Rocket 4.4 17:52:37 10° N 17:58:47 81° W 18:04:50 10° S
Cosmos 2360 Rocket 2.9 17:54:47 15° S 17:59:17 50° ESE 18:04:45 10° NNE
Cosmos 1110 Rocket 4.0 17:57:21 24° SSW 18:00:30 83° ESE 18:05:41 10° NNE
BREEZE-M DEB (TANK) 4.1 18:02:14 13° WNW 18:03:30 15° NW 18:05:06 10° N
Spot 4 Rocket 4.3 17:59:37 10° NNE 18:04:45 66° ESE 18:09:24 12° S
Cosmos 1892 Rocket 3.5 18:02:55 30° SSW 18:04:53 64° W 18:09:12 10° N
ISS -3.9 18:02:42 10° NW 18:06:04 78° SW 18:09:25 10° SE
Cosmos 1464 Rocket 3.9 18:00:06 10° N 18:06:17 77° W 18:12:30 10° S
Cosmos 1850 Rocket 4.2 18:04:52 10° NNW 18:10:14 78° ENE 18:15:33 10° SSE
Cosmos 1184 Rocket 4.4 18:08:04 10° SSE 18:10:56 31° E 18:13:49 10° NNE
Cosmos 1455 2.3 18:07:21 10° N 18:11:12 75° E 18:15:02 10° S
Cosmos 2237 4.2 18:11:46 18° SSW 18:16:07 89° ESE 18:21:52 10° NNE
Meteor 1-21 Rocket 4.2 18:12:25 11° S 18:17:46 88° E 18:23:20 10° N
Cosmos 2034 Rocket 4.0 18:11:51 10° N 18:18:13 89° W 18:24:28 10° S
Cosmos 1980 Rocket 4.3 18:16:11 10° WNW 18:18:38 13° NW 18:21:05 10° NNW
Cosmos 2228 3.8 18:16:29 10° NNW 18:20:16 31° W 18:22:05 22° SW
Cosmos 1741 Rocket 3.9 18:17:04 10° NNW 18:22:18 85° WSW 18:27:32 10° SSE
Cosmos 1346 Rocket 3.6 18:22:19 24° WSW 18:23:53 33° WNW 18:27:27 10° NNW
Cosmos 1726 Rocket 4.0 18:23:46 10° NNW 18:27:55 41° W 18:31:43 12° SSW
Cosmos 1606 Rocket 4.4 18:25:02 10° NNW 18:28:55 31° W 18:31:39 17° SW
Okean 1-7 Rocket 3.7 18:25:46 14° SSW 18:29:34 61° W 18:34:06 10° N
Cosmos 2058 Rocket 3.1 18:27:09 10° NNW 18:31:38 68° W 18:36:05 10° S
Cosmos 1703 3.2 18:29:40 14° SSW 18:32:57 63° W 18:36:48 10° N
Cosmos 2227 4.4 18:27:53 10° NW 18:33:15 46° WSW 18:38:33 10° S
IDEFIX/ARIANE 42P 4.0 18:30:15 10° NNW 18:34:14 22° WNW 18:37:13 14° WSW
CZ-4B R/B 4.3 18:30:07 10° N 18:34:40 34° WNW 18:38:22 15° SW
USA 32 4.1 18:30:30 10° NNW 18:35:39 59° W 18:40:47 10° SSW
ARIANE 5 R/B 3.3 18:33:18 10° N 18:37:51 33° WNW 18:41:35 14° SW
FENGYUN 3A 4.1 18:32:33 10° NNE 18:37:53 62° E 18:43:12 10° S
Cosmos 1328 3.8 18:36:22 10° S 18:40:22 87° W 18:44:22 10° N
ALOS 2.8 18:36:12 10° NNE 18:40:49 59° E 18:45:24 10° S
BREEZE-M DEB (TANK) 3.7 18:31:12 10° NW 18:42:01 60° SW 18:45:22 10° SSE
Atlas Centaur 2 2.9 18:35:15 13° WSW 18:42:06 57° S 18:48:25 10° E
Cosmos 2322 4.4 18:37:38 10° S 18:43:07 54° ESE 18:48:37 10° NNE
Cosmos 1484 Rocket 4.1 18:41:31 10° NNE 18:45:13 41° E 18:48:50 10° S
NOSS 3-2 (C) 3.7 18:43:15 13° SW 18:47:54 48° NW 18:53:52 10° NNE
ATLAS 2A CENTAUR R/B 3.3 18:50:17 11° SW 18:53:48 35° SSE 19:04:51 10° E
Cosmos 1602 Rocket 3.5 18:49:34 10° S 18:53:54 83° W 18:58:17 10° N
ATLAS CENTAUR R/B 4.5 18:50:06 10° S 18:55:36 54° ESE 19:09:49 10° NE
Cosmos 1758 Rocket 4.3 18:51:20 10° S 18:55:40 56° E 19:00:04 10° NNE
CZ-2C R/B 3.3 18:51:52 10° N 18:55:45 46° WNW 18:59:37 10° SSW
SL-16 R/B 3.6 18:52:42 10° WSW 18:57:03 22° WNW 19:01:24 10° N
OAO 2 Rocket 3.5 18:52:24 10° W 18:57:39 64° SSW 19:02:55 10° ESE
Cosmos 389 Rocket 3.7 18:57:46 10° NW 19:00:33 23° W 19:03:18 10° SW
Cosmos 2333 Rocket 2.5 18:54:55 10° SSW 19:00:39 75° ESE 19:06:25 10° NNE
Cosmos 1626 Rocket 3.9 18:56:48 10° SSW 19:01:00 45° W 19:05:16 10° N
Aureole 1 Rocket 3.5 18:59:49 10° NW 19:03:26 38° WSW 19:08:01 10° S
SL-08 R/B 4.4 19:01:12 10° SSW 19:04:55 23° W 19:08:36 10° NW
CZ-2C R/B 3.1 19:00:57 10° N 19:05:47 42° WNW 19:10:38 10° SW
ASTEX 1 3.6 19:03:31 10° S 19:08:29 82° E 19:13:31 10° N
METEOR-M 4.3 19:03:43 10° NNE 19:09:06 84° ESE 19:14:27 10° SSW
OAO 3 Copernicus 4.4 19:05:09 10° W 19:10:15 88° S 19:15:20 10° E
Cosmos 1302 Rocket 4.4 19:06:22 10° SW 19:11:27 48° WNW 19:16:35 10° N
